JAL765 YSSY-RJTT

Flight info

Callsign JAL765
Flight time N/A
Altitude 34000
Route RIC6/34L RIC H530 LASUD Q238 DUPUG/N0499F330 Q141 ESKUT/N0497F340 Q141 OVRON B462 APISO DCT 1116S14722E DCT NZ B586 PIKOK/N0495F360 DCT 05N145E 06N145E 10N144E 15N143E 20N142E 25N141E/N0484F380 UKATA B586 CADDY/N0486F370 T871 TOPIT Y875 AROSA
Aircraft B77W/H-SDE1E2E3FGHIJ2J3J4J5M1RWXY/LB1D1

Departure

Time 2026-05-01 08:13
Airport Sydney Kingsford Smith International Airport (YSSY)

Arrival

Time N/A
Airport Tokyo Haneda International Airport (RJTT)
Time Latitude Longitude Altitude Speed Heading
2026-05-01 07:33 -33.93559 151.16827 35 ft 0 kts 237°
2026-05-01 07:57 -33.93556 151.16834 33 ft 0 kts 237°
2026-05-01 07:58 -33.93550 151.16844 34 ft 1 kts 237°
2026-05-01 07:58 -33.93529 151.16870 31 ft 2 kts 217°
2026-05-01 07:59 -33.93502 151.16890 33 ft 2 kts 205°
2026-05-01 07:59 -33.93472 151.16902 34 ft 0 kts 188°
2026-05-01 08:00 -33.93448 151.16904 34 ft 0 kts 171°
2026-05-01 08:03 -33.93477 151.16914 34 ft 8 kts 159°
2026-05-01 08:03 -33.93508 151.16998 35 ft 8 kts 80°
2026-05-01 08:04 -33.93628 151.17136 34 ft 19 kts 168°
2026-05-01 08:04 -33.93965 151.17224 34 ft 30 kts 168°
2026-05-01 08:05 -33.94039 151.17243 34 ft 0 kts 168°
2026-05-01 08:06 -33.94137 151.17268 33 ft 14 kts 168°
2026-05-01 08:06 -33.94406 151.17338 35 ft 25 kts 168°
2026-05-01 08:07 -33.94814 151.17444 34 ft 35 kts 168°
2026-05-01 08:07 -33.95037 151.17501 34 ft 39 kts 168°
2026-05-01 08:08 -33.95073 151.17510 34 ft 39 kts 168°
2026-05-01 08:08 -33.95578 151.17641 35 ft 45 kts 167°
2026-05-01 08:09 -33.95742 151.17684 35 ft 0 kts 168°
2026-05-01 08:10 -33.95745 151.17685 35 ft 2 kts 168°
2026-05-01 08:10 -33.95844 151.17710 35 ft 14 kts 167°
2026-05-01 08:11 -33.96118 151.17781 35 ft 25 kts 167°
2026-05-01 08:11 -33.96397 151.17857 35 ft 15 kts 154°
2026-05-01 08:12 -33.96371 151.18051 34 ft 7 kts
2026-05-01 08:12 -33.96298 151.18030 34 ft 25 kts 345°
2026-05-01 08:12 -33.94748 151.17620 40 ft 199 kts 346°
2026-05-01 08:13 -33.93262 151.17209 534 ft 231 kts 347°
2026-05-01 08:13 -33.91650 151.16777 1607 ft 238 kts 347°
2026-05-01 08:13 -33.88724 151.15382 3577 ft 225 kts 316°
2026-05-01 08:14 -33.87713 151.13955 4304 ft 218 kts 311°
2026-05-01 08:14 -33.86758 151.12536 4874 ft 225 kts 307°
2026-05-01 08:14 -33.85768 151.10968 5028 ft 249 kts 307°
2026-05-01 08:14 -33.84665 151.09304 5024 ft 255 kts 309°
2026-05-01 08:15 -33.83515 151.07661 5019 ft 258 kts 310°
2026-05-01 08:15 -33.81113 151.04422 5490 ft 265 kts 312°
2026-05-01 08:15 -33.79853 151.02783 6185 ft 271 kts 313°
2026-05-01 08:16 -33.78561 151.01126 6949 ft 274 kts 313°
2026-05-01 08:16 -33.77246 150.99458 7722 ft 276 kts 313°
2026-05-01 08:16 -33.75913 150.97778 8454 ft 279 kts 313°
2026-05-01 08:16 -33.74558 150.96079 9181 ft 282 kts 313°
2026-05-01 08:17 -33.73225 150.94412 9853 ft 287 kts 313°
2026-05-01 08:17 -33.71824 150.92664 10404 ft 293 kts 316°
2026-05-01 08:17 -33.70388 150.90877 10918 ft 305 kts 316°
2026-05-01 08:17 -33.68850 150.88968 11089 ft 329 kts 316°
2026-05-01 08:18 -33.67224 150.86949 11264 ft 352 kts 316°
2026-05-01 08:18 -33.63649 150.82504 12114 ft 381 kts 315°
2026-05-01 08:19 -33.59917 150.77874 13624 ft 389 kts 315°
2026-05-01 08:19 -33.58006 150.75565 14388 ft 392 kts 317°
2026-05-01 08:19 -33.56026 150.73281 15042 ft 397 kts 317°
2026-05-01 08:19 -33.54017 150.70990 15726 ft 401 kts 317°
2026-05-01 08:20 -33.51979 150.68663 16402 ft 406 kts 317°
2026-05-01 08:20 -33.49925 150.66308 17088 ft 410 kts 317°
2026-05-01 08:20 -33.47884 150.63964 17748 ft 414 kts 316°
2026-05-01 08:20 -33.45792 150.61555 18393 ft 419 kts 316°
2026-05-01 08:21 -33.43679 150.59120 18991 ft 423 kts 316°
2026-05-01 08:21 -33.41550 150.56670 19620 ft 426 kts 316°
2026-05-01 08:21 -33.39411 150.54211 20288 ft 427 kts 316°
2026-05-01 08:21 -33.37262 150.51738 20935 ft 429 kts 316°
2026-05-01 08:22 -33.35097 150.49247 21494 ft 433 kts 316°
2026-05-01 08:22 -33.32929 150.46752 22181 ft 433 kts 316°
2026-05-01 08:22 -33.30747 150.44244 22719 ft 437 kts 316°
2026-05-01 08:22 -33.28574 150.41748 23297 ft 439 kts 316°
2026-05-01 08:23 -33.26377 150.39225 24005 ft 438 kts 316°
2026-05-01 08:23 -33.24181 150.36703 24552 ft 439 kts 316°
2026-05-01 08:23 -33.21972 150.34170 25020 ft 442 kts 316°
2026-05-01 08:23 -33.19744 150.31617 25412 ft 447 kts 316°
2026-05-01 08:24 -33.17490 150.29037 25838 ft 450 kts 316°
2026-05-01 08:24 -33.15216 150.26436 26195 ft 455 kts 316°
2026-05-01 08:24 -33.12923 150.23816 26640 ft 457 kts 316°
2026-05-01 08:24 -33.10622 150.21188 27137 ft 458 kts 316°
2026-05-01 08:25 -33.08308 150.18546 27472 ft 463 kts 316°
2026-05-01 08:25 -33.05972 150.15881 27848 ft 466 kts 316°
2026-05-01 08:25 -33.03614 150.13194 28122 ft 471 kts 316°
2026-05-01 08:25 -33.01232 150.10481 28458 ft 475 kts 316°
2026-05-01 08:26 -32.98840 150.07758 28834 ft 477 kts 316°
2026-05-01 08:26 -32.96438 150.05026 29207 ft 479 kts 316°
2026-05-01 08:26 -32.94018 150.02277 29560 ft 481 kts 316°
2026-05-01 08:26 -32.91591 149.99522 29865 ft 483 kts 316°
2026-05-01 08:27 -32.89185 149.96794 30161 ft 485 kts 316°
2026-05-01 08:27 -32.86733 149.94015 30520 ft 485 kts 316°
2026-05-01 08:27 -32.84291 149.91248 30874 ft 484 kts 315°
2026-05-01 08:27 -32.81859 149.88493 31254 ft 483 kts 315°
2026-05-01 08:28 -32.79426 149.85742 31625 ft 481 kts 314°
2026-05-01 08:28 -32.77000 149.82998 31998 ft 480 kts 314°
2026-05-01 08:28 -32.74578 149.80261 32347 ft 479 kts 314°
2026-05-01 08:28 -32.72168 149.77537 32670 ft 478 kts 314°
2026-05-01 08:29 -32.69765 149.74820 33017 ft 477 kts 314°
2026-05-01 08:29 -32.67364 149.72106 33354 ft 476 kts 314°
2026-05-01 08:29 -32.64968 149.69400 33681 ft 475 kts 314°
2026-05-01 08:29 -32.62604 149.66732 33994 ft 474 kts 314°
2026-05-01 08:30 -32.60216 149.64038 34258 ft 474 kts 314°
2026-05-01 08:30 -32.55470 149.58554 34311 ft 475 kts 309°
2026-05-01 08:31 -32.51303 149.52543 34308 ft 468 kts 306°
2026-05-01 08:31 -32.47224 149.46552 34311 ft 467 kts 306°
2026-05-01 08:32 -32.43140 149.40613 34306 ft 467 kts 306°
2026-05-01 08:32 -32.39017 149.34653 34298 ft 468 kts 306°
2026-05-01 08:33 -32.34887 149.28696 34303 ft 468 kts 306°
2026-05-01 08:33 -32.30752 149.22737 34296 ft 469 kts 306°
2026-05-01 08:34 -32.26606 149.16771 34292 ft 470 kts 306°
2026-05-01 08:34 -32.22453 149.10804 34298 ft 470 kts 306°
2026-05-01 08:35 -32.18294 149.04846 34297 ft 470 kts 307°
2026-05-01 08:35 -32.14126 148.98898 34290 ft 470 kts 306°
2026-05-01 08:36 -32.09988 148.92996 34293 ft 469 kts 306°
2026-05-01 08:36 -32.07698 148.90257 34286 ft 474 kts 319°
2026-05-01 08:36 -32.04828 148.88288 34293 ft 482 kts 333°
2026-05-01 08:36 -32.01597 148.87123 34279 ft 491 kts 347°
2026-05-01 08:37 -31.98179 148.86763 34301 ft 494 kts 353°
2026-05-01 08:37 -31.91271 148.86403 34287 ft 498 kts 353°
2026-05-01 08:38 -31.84331 148.86008 34287 ft 500 kts 353°
2026-05-01 08:38 -31.77371 148.85533 34285 ft 502 kts 352°
2026-05-01 08:39 -31.71571 148.85111 34289 ft 502 kts 352°
2026-05-01 08:39 -31.64592 148.84603 34280 ft 502 kts 352°
2026-05-01 08:40 -31.54136 148.83849 34288 ft 501 kts 352°
2026-05-01 08:40 -31.47172 148.83351 34280 ft 501 kts 352°
2026-05-01 08:41 -31.40257 148.82856 34284 ft 501 kts 352°
2026-05-01 08:41 -31.33304 148.82359 34280 ft 501 kts 352°
2026-05-01 08:42 -31.26341 148.81861 34279 ft 501 kts 352°
2026-05-01 08:42 -31.19387 148.81365 34279 ft 501 kts 352°
2026-05-01 08:43 -31.12407 148.80869 34261 ft 502 kts 352°
2026-05-01 08:43 -31.05424 148.80372 34265 ft 503 kts 352°
2026-05-01 08:44 -30.98435 148.79875 34267 ft 503 kts 352°
2026-05-01 08:44 -30.91470 148.79376 34261 ft 504 kts 352°
2026-05-01 08:45 -30.84461 148.78875 34255 ft 504 kts 351°
2026-05-01 08:45 -30.77461 148.78375 34259 ft 504 kts 351°
2026-05-01 08:46 -30.70491 148.77880 34252 ft 504 kts 351°
2026-05-01 08:46 -30.63479 148.77390 34244 ft 504 kts 351°
2026-05-01 08:47 -30.56447 148.76901 34252 ft 504 kts 351°
2026-05-01 08:47 -30.49488 148.76416 34250 ft 504 kts 351°
2026-05-01 08:48 -30.42472 148.75927 34251 ft 504 kts 351°
2026-05-01 08:48 -30.35467 148.75441 34242 ft 503 kts 351°
2026-05-01 08:49 -30.28476 148.74956 34238 ft 502 kts 351°
2026-05-01 08:49 -30.21515 148.74473 34242 ft 500 kts 351°
2026-05-01 08:50 -30.14615 148.73995 34237 ft 499 kts 351°
2026-05-01 08:50 -30.07640 148.73512 34244 ft 499 kts 351°
2026-05-01 08:51 -30.00759 148.73036 34246 ft 499 kts 351°
2026-05-01 08:51 -29.93820 148.72557 34240 ft 499 kts 351°
2026-05-01 08:52 -29.86878 148.72078 34234 ft 500 kts 351°
2026-05-01 08:52 -29.79923 148.71600 34246 ft 501 kts 351°
2026-05-01 08:53 -29.72947 148.71121 34241 ft 501 kts 351°
2026-05-01 08:53 -29.65982 148.70643 34227 ft 502 kts 351°
2026-05-01 08:54 -29.58992 148.70164 34235 ft 502 kts 351°
2026-05-01 08:54 -29.52063 148.69691 34237 ft 502 kts 351°
2026-05-01 08:55 -29.45085 148.69214 34236 ft 502 kts 351°
2026-05-01 08:55 -29.38104 148.68738 34235 ft 502 kts 351°
2026-05-01 08:56 -29.31124 148.68263 34234 ft 502 kts 351°
2026-05-01 08:56 -29.24191 148.67791 34234 ft 501 kts 351°
2026-05-01 08:57 -29.17226 148.67318 34232 ft 501 kts 351°
2026-05-01 08:57 -29.11388 148.66921 34227 ft 501 kts 351°
2026-05-01 08:58 -29.03296 148.66373 34235 ft 501 kts 351°
2026-05-01 08:58 -28.96327 148.65898 34234 ft 502 kts 351°
2026-05-01 08:59 -28.89341 148.65421 34227 ft 502 kts 351°
2026-05-01 08:59 -28.82368 148.64946 34233 ft 503 kts 351°
2026-05-01 09:00 -28.75371 148.64470 34233 ft 503 kts 351°
2026-05-01 09:00 -28.68375 148.63995 34232 ft 504 kts 351°
2026-05-01 09:01 -28.61420 148.63523 34219 ft 504 kts 351°
2026-05-01 09:01 -28.54409 148.63049 34228 ft 505 kts 351°
2026-05-01 09:02 -28.47399 148.62575 34228 ft 505 kts 351°
2026-05-01 09:02 -28.40367 148.62100 34229 ft 506 kts 351°
2026-05-01 09:03 -28.33327 148.61625 34220 ft 506 kts 351°
2026-05-01 09:03 -28.26299 148.61151 34223 ft 506 kts 351°
2026-05-01 09:04 -28.19304 148.60681 34228 ft 507 kts 351°
2026-05-01 09:04 -28.12260 148.60207 34205 ft 507 kts 351°
2026-05-01 09:05 -28.05196 148.59733 34223 ft 508 kts 351°
2026-05-01 09:05 -27.98127 148.59261 34218 ft 508 kts 351°
2026-05-01 09:06 -27.91055 148.58792 34219 ft 509 kts 351°
2026-05-01 09:06 -27.84025 148.58326 34208 ft 509 kts 351°
2026-05-01 09:07 -27.76945 148.57856 34219 ft 510 kts 351°
2026-05-01 09:07 -27.70846 148.57452 34215 ft 510 kts 351°
2026-05-01 09:08 -27.63758 148.56983 34219 ft 510 kts 351°
2026-05-01 09:08 -27.56648 148.56514 34208 ft 511 kts 351°
2026-05-01 09:09 -27.49589 148.56048 34216 ft 511 kts 351°
2026-05-01 09:09 -27.42474 148.55579 34215 ft 512 kts 351°
2026-05-01 09:10 -27.35359 148.55111 34209 ft 512 kts 351°
2026-05-01 09:10 -27.28231 148.54642 34215 ft 513 kts 351°
2026-05-01 09:11 -27.21096 148.54174 34213 ft 513 kts 351°
2026-05-01 09:11 -27.13948 148.53705 34213 ft 514 kts 351°
2026-05-01 09:12 -27.06800 148.53237 34198 ft 514 kts 351°
2026-05-01 09:12 -26.99705 148.52773 34216 ft 515 kts 351°
2026-05-01 09:13 -26.92557 148.52306 34222 ft 515 kts 351°
2026-05-01 09:13 -26.85382 148.51838 34210 ft 516 kts 351°
2026-05-01 09:14 -26.78207 148.51371 34214 ft 516 kts 351°
2026-05-01 09:14 -26.71041 148.50905 34210 ft 516 kts 351°
2026-05-01 09:15 -26.63862 148.50439 34210 ft 516 kts 351°
2026-05-01 09:15 -26.56694 148.49974 34202 ft 515 kts 351°
2026-05-01 09:16 -26.49571 148.49512 34210 ft 515 kts 351°
2026-05-01 09:17 -26.38820 148.48816 34212 ft 516 kts 351°
2026-05-01 09:17 -26.28039 148.48119 34203 ft 516 kts 351°
2026-05-01 09:18 -26.17292 148.47430 34228 ft 516 kts 351°
2026-05-01 09:19 -26.06553 148.46741 34210 ft 518 kts 352°
2026-05-01 09:20 -25.95659 148.47873 34233 ft 531 kts
2026-05-01 09:21 -25.81152 148.51032 34214 ft 530 kts
2026-05-01 09:21 -25.70274 148.53303 34217 ft 529 kts
2026-05-01 09:22 -25.55828 148.56292 34210 ft 530 kts
2026-05-01 09:23 -25.44952 148.58544 34208 ft 530 kts
2026-05-01 09:24 -25.34048 148.60798 34210 ft 532 kts
2026-05-01 09:25 -25.19518 148.63795 34201 ft 533 kts
2026-05-01 09:26 -25.08570 148.66049 34202 ft 533 kts
2026-05-01 09:26 -24.97610 148.68300 34195 ft 533 kts
2026-05-01 09:27 -24.86712 148.70535 34191 ft 533 kts
2026-05-01 09:28 -24.80595 148.71788 34183 ft 533 kts
2026-05-01 09:28 -24.73303 148.73279 34174 ft 533 kts
2026-05-01 09:29 -24.62399 148.75506 34185 ft 533 kts
2026-05-01 09:30 -24.51473 148.77734 34188 ft 532 kts
2026-05-01 09:30 -24.40556 148.79956 34179 ft 531 kts
2026-05-01 09:31 -24.33288 148.81433 34183 ft 531 kts
2026-05-01 09:32 -24.22441 148.83634 34176 ft 530 kts
2026-05-01 09:32 -24.11531 148.85844 34181 ft 531 kts
2026-05-01 09:33 -24.04274 148.87311 34178 ft 531 kts
2026-05-01 09:34 -23.93402 148.89507 34170 ft 532 kts
2026-05-01 09:34 -23.82472 148.91711 34172 ft 532 kts
2026-05-01 09:35 -23.71539 148.93912 34154 ft 533 kts
2026-05-01 09:36 -23.64247 148.95378 34161 ft 533 kts
2026-05-01 09:36 -23.56957 148.96842 34165 ft 533 kts
2026-05-01 09:37 -23.49665 148.98305 34162 ft 533 kts
2026-05-01 09:37 -23.38764 149.00488 34161 ft 532 kts
2026-05-01 09:38 -23.27824 149.02676 34155 ft 532 kts
2026-05-01 09:39 -23.16884 149.04860 34153 ft 532 kts
2026-05-01 09:39 -23.09607 149.06311 34158 ft 531 kts
2026-05-01 09:40 -22.98704 149.08481 34156 ft 530 kts
2026-05-01 09:41 -22.91489 149.09916 34151 ft 530 kts
2026-05-01 09:41 -22.80583 149.11764 34147 ft 524 kts 358°
2026-05-01 09:42 -22.73367 149.11615 34163 ft 518 kts 351°
2026-05-01 09:43 -22.58979 149.10825 34172 ft 519 kts 351°
2026-05-01 09:43 -22.51753 149.10483 34155 ft 520 kts 351°
2026-05-01 09:44 -22.40894 149.09977 34156 ft 521 kts 351°
2026-05-01 09:45 -22.33647 149.09636 34159 ft 520 kts 351°
2026-05-01 09:45 -22.22802 149.09126 34164 ft 519 kts 351°
2026-05-01 09:46 -22.15616 149.08787 34159 ft 519 kts 351°
2026-05-01 09:46 -22.08395 149.08448 34143 ft 518 kts 351°
2026-05-01 09:47 -22.01194 149.08110 34154 ft 517 kts 351°
2026-05-01 09:47 -21.94007 149.07773 34159 ft 517 kts 351°
2026-05-01 09:48 -21.86823 149.07436 34156 ft 517 kts 351°
2026-05-01 09:48 -21.79640 149.07099 34143 ft 516 kts 351°
2026-05-01 09:49 -21.72513 149.06766 34161 ft 515 kts 351°
2026-05-01 09:49 -21.65370 149.06322 34158 ft 512 kts 349°
2026-05-01 09:50 -21.58274 149.05698 34158 ft 511 kts 348°
2026-05-01 09:50 -21.51184 149.05070 34159 ft 511 kts 348°
2026-05-01 09:51 -21.44071 149.04473 34152 ft 512 kts 349°
2026-05-01 09:51 -21.36954 149.03890 34151 ft 513 kts 349°
2026-05-01 09:52 -21.29880 149.03313 34148 ft 514 kts 349°
2026-05-01 09:52 -21.22733 149.02729 34141 ft 514 kts 349°
2026-05-01 09:53 -21.15613 149.02149 34148 ft 511 kts 349°
2026-05-01 09:53 -21.08545 149.01573 34144 ft 508 kts 349°
2026-05-01 09:54 -21.01519 149.00999 34143 ft 506 kts 349°
2026-05-01 09:54 -20.94510 149.00426 34112 ft 504 kts 349°
2026-05-01 09:55 -20.87543 148.99858 34133 ft 501 kts 349°
2026-05-01 09:55 -20.80635 148.99296 34134 ft 500 kts 349°
2026-05-01 09:56 -20.73698 148.98731 34137 ft 499 kts 349°
2026-05-01 09:56 -20.66776 148.98168 34137 ft 499 kts 349°
2026-05-01 09:57 -20.59859 148.97607 34128 ft 498 kts 349°
2026-05-01 09:57 -20.52942 148.97046 34125 ft 496 kts 349°
2026-05-01 09:58 -20.46109 148.96492 34127 ft 495 kts 349°
2026-05-01 09:58 -20.39233 148.95935 34124 ft 495 kts 349°
2026-05-01 09:59 -20.32412 148.95213 34132 ft 488 kts 345°
2026-05-01 09:59 -20.25713 148.94064 34132 ft 486 kts 345°
2026-05-01 10:00 -20.19070 148.92906 34127 ft 485 kts 345°
2026-05-01 10:00 -20.12408 148.91764 34125 ft 485 kts 345°
2026-05-01 10:01 -20.05741 148.90636 34112 ft 485 kts 345°
2026-05-01 10:01 -19.99089 148.89516 34114 ft 484 kts 345°
2026-05-01 10:02 -19.92446 148.88398 34112 ft 483 kts 345°
2026-05-01 10:02 -19.85805 148.87280 34111 ft 483 kts 345°
2026-05-01 10:03 -19.79164 148.86162 34109 ft 483 kts 345°
2026-05-01 10:03 -19.72567 148.85053 34101 ft 482 kts 345°
2026-05-01 10:04 -19.65933 148.83939 34103 ft 482 kts 345°
2026-05-01 10:04 -19.59296 148.82825 34104 ft 482 kts 345°
2026-05-01 10:05 -19.52662 148.81712 34100 ft 482 kts 345°
2026-05-01 10:05 -19.46031 148.80602 34081 ft 482 kts 345°
2026-05-01 10:06 -19.39398 148.79491 34099 ft 482 kts 345°
2026-05-01 10:06 -19.32768 148.78382 34100 ft 482 kts 345°
2026-05-01 10:07 -19.26174 148.77280 34094 ft 482 kts 345°
2026-05-01 10:07 -19.19534 148.76171 34090 ft 483 kts 345°
2026-05-01 10:08 -19.09582 148.74510 34087 ft 482 kts 345°
2026-05-01 10:09 -19.02955 148.73407 34094 ft 482 kts 345°
2026-05-01 10:09 -18.96343 148.72306 34089 ft 483 kts 345°
2026-05-01 10:10 -18.89663 148.71195 34088 ft 483 kts 345°
2026-05-01 10:10 -18.79746 148.69547 34082 ft 483 kts 345°
2026-05-01 10:11 -18.73111 148.68445 34083 ft 483 kts 345°
2026-05-01 10:11 -18.66474 148.67343 34083 ft 483 kts 345°
2026-05-01 10:12 -18.60947 148.66427 34083 ft 483 kts 345°
2026-05-01 10:13 -18.50040 148.64621 34077 ft 483 kts 345°
2026-05-01 10:13 -18.43683 148.63569 34078 ft 483 kts 345°
2026-05-01 10:14 -18.33713 148.61921 34080 ft 483 kts 345°
2026-05-01 10:14 -18.27069 148.60824 34079 ft 483 kts 345°
2026-05-01 10:15 -18.20418 148.59726 34079 ft 483 kts 345°
2026-05-01 10:15 -18.13819 148.58638 34066 ft 483 kts 345°
2026-05-01 10:16 -18.07171 148.57543 34069 ft 484 kts 345°
2026-05-01 10:17 -17.98495 148.56115 34066 ft 484 kts 345°
2026-05-01 10:17 -17.88501 148.54471 34070 ft 484 kts 345°
2026-05-01 10:18 -17.78567 148.52840 34070 ft 484 kts 345°
2026-05-01 10:19 -17.71923 148.51749 34074 ft 484 kts 345°
2026-05-01 10:19 -17.65273 148.50659 34046 ft 484 kts 345°
2026-05-01 10:20 -17.55331 148.49032 34058 ft 480 kts 345°
2026-05-01 10:20 -17.48736 148.47953 34057 ft 479 kts 345°
2026-05-01 10:21 -17.38877 148.46340 34064 ft 478 kts 345°
2026-05-01 10:22 -17.29041 148.44732 34055 ft 478 kts 345°
2026-05-01 10:23 -17.19182 148.43124 34061 ft 478 kts 345°
2026-05-01 10:23 -17.09325 148.41517 34061 ft 478 kts 345°
2026-05-01 10:24 -16.96183 148.39378 34051 ft 477 kts 346°
2026-05-01 10:25 -16.83102 148.37252 34053 ft 476 kts 346°
2026-05-01 10:26 -16.76543 148.36186 34052 ft 476 kts 346°
2026-05-01 10:27 -16.63450 148.34063 34050 ft 475 kts 346°
2026-05-01 10:28 -16.53685 148.32481 34047 ft 475 kts 346°
2026-05-01 10:28 -16.43893 148.30896 34050 ft 475 kts 346°
2026-05-01 10:29 -16.34116 148.29315 34034 ft 473 kts 346°
2026-05-01 10:30 -16.21150 148.27221 34050 ft 470 kts 346°
2026-05-01 10:31 -16.08238 148.25138 34043 ft 471 kts 346°
2026-05-01 10:32 -15.98495 148.23567 34043 ft 474 kts 346°
2026-05-01 10:33 -15.85416 148.21463 34036 ft 476 kts 346°
2026-05-01 10:34 -15.75631 148.19890 34025 ft 476 kts 346°
2026-05-01 10:34 -15.69073 148.18837 34033 ft 477 kts 346°
2026-05-01 10:35 -15.59218 148.17259 34038 ft 478 kts 346°
2026-05-01 10:35 -15.52643 148.16208 34034 ft 478 kts 346°
2026-05-01 10:36 -15.42821 148.14639 34029 ft 477 kts 346°
2026-05-01 10:37 -15.36241 148.13588 34026 ft 477 kts 346°
2026-05-01 10:37 -15.26402 148.12017 34029 ft 477 kts 346°
2026-05-01 10:38 -15.19877 148.10977 34018 ft 477 kts 347°
2026-05-01 10:38 -15.13324 148.09932 34021 ft 477 kts 347°
2026-05-01 10:39 -15.06757 148.08886 34023 ft 477 kts 347°
2026-05-01 10:39 -15.00190 148.07841 34023 ft 477 kts 347°
2026-05-01 10:40 -14.93632 148.06798 34020 ft 477 kts 347°
2026-05-01 10:40 -14.87054 148.05752 34011 ft 478 kts 347°
2026-05-01 10:41 -14.80489 148.04709 34017 ft 478 kts 347°
2026-05-01 10:42 -14.70651 148.03147 34016 ft 479 kts 347°
2026-05-01 10:42 -14.64060 148.02102 34016 ft 479 kts 347°
2026-05-01 10:43 -14.57471 148.01057 34011 ft 479 kts 347°
2026-05-01 10:43 -14.50874 148.00012 34015 ft 480 kts 347°
2026-05-01 10:44 -14.44274 147.98967 34010 ft 480 kts 347°
2026-05-01 10:44 -14.37659 147.97920 34013 ft 480 kts 347°
2026-05-01 10:45 -14.31054 147.96876 34009 ft 481 kts 348°
2026-05-01 10:45 -14.24444 147.95831 34003 ft 481 kts 348°
2026-05-01 10:46 -14.17818 147.94784 34005 ft 481 kts 348°
2026-05-01 10:46 -14.11229 147.93744 34003 ft 482 kts 348°
2026-05-01 10:47 -14.04606 147.92699 34006 ft 482 kts 348°
2026-05-01 10:47 -13.97969 147.91653 34002 ft 482 kts 348°
2026-05-01 10:48 -13.91334 147.90607 33998 ft 482 kts 348°
2026-05-01 10:48 -13.84688 147.89560 34005 ft 483 kts 348°
2026-05-01 10:49 -13.78035 147.88513 34000 ft 483 kts 348°
2026-05-01 10:49 -13.71381 147.87466 34000 ft 484 kts 348°
2026-05-01 10:50 -13.64770 147.86427 33998 ft 484 kts 348°
2026-05-01 10:50 -13.58092 147.85377 33994 ft 485 kts 348°
2026-05-01 10:51 -13.51414 147.84328 33996 ft 485 kts 348°
2026-05-01 10:51 -13.44726 147.83279 33993 ft 486 kts 348°
2026-05-01 10:52 -13.38038 147.82229 33994 ft 486 kts 348°
2026-05-01 10:52 -13.31341 147.81180 33986 ft 487 kts 348°
2026-05-01 10:53 -13.24678 147.80135 33992 ft 488 kts 348°
2026-05-01 10:53 -13.17920 147.79077 33993 ft 489 kts 348°
2026-05-01 10:54 -13.11236 147.78031 33992 ft 489 kts 348°
2026-05-01 10:54 -13.04495 147.76976 33989 ft 489 kts 348°
2026-05-01 10:55 -12.97756 147.75923 33979 ft 490 kts 349°
2026-05-01 10:55 -12.91007 147.74868 33989 ft 491 kts 349°
2026-05-01 10:56 -12.84248 147.73812 33984 ft 492 kts 348°
2026-05-01 10:56 -12.77469 147.72754 33981 ft 492 kts 348°
2026-05-01 10:57 -12.70690 147.71697 33983 ft 493 kts 348°
2026-05-01 10:57 -12.63905 147.70639 33979 ft 493 kts 349°
2026-05-01 10:58 -12.57121 147.69582 33982 ft 494 kts 349°
2026-05-01 10:58 -12.50365 147.68529 33981 ft 494 kts 349°
2026-05-01 10:59 -12.43573 147.67471 33978 ft 494 kts 349°
2026-05-01 10:59 -12.36764 147.66412 33978 ft 494 kts 349°
2026-05-01 11:00 -12.29967 147.65355 33971 ft 494 kts 349°
2026-05-01 11:00 -12.23166 147.64298 33979 ft 494 kts 349°
2026-05-01 11:01 -12.16371 147.63242 33977 ft 493 kts 349°
2026-05-01 11:01 -12.09622 147.62194 33972 ft 493 kts 349°
2026-05-01 11:02 -12.02834 147.61140 33967 ft 494 kts 348°
2026-05-01 11:02 -11.96162 147.59552 33975 ft 491 kts 340°
2026-05-01 11:03 -11.89674 147.57369 33968 ft 492 kts 339°
2026-05-01 11:03 -11.83161 147.55186 33966 ft 493 kts 339°
2026-05-01 11:04 -11.76633 147.53033 33965 ft 493 kts 340°
2026-05-01 11:04 -11.70131 147.50904 33968 ft 492 kts 341°
2026-05-01 11:05 -11.63620 147.48775 33958 ft 489 kts 340°
2026-05-01 11:05 -11.57149 147.46659 33961 ft 487 kts 339°
2026-05-01 11:06 -11.50727 147.44555 33962 ft 487 kts 340°
2026-05-01 11:06 -11.44274 147.42443 33962 ft 487 kts 339°
2026-05-01 11:07 -11.35671 147.39634 33958 ft 488 kts 339°
2026-05-01 11:07 -11.29199 147.37519 33954 ft 487 kts 341°
2026-05-01 11:08 -11.22581 147.36014 33960 ft 489 kts 350°
2026-05-01 11:09 -11.12474 147.34652 33948 ft 488 kts 351°
2026-05-01 11:09 -11.05741 147.33728 33949 ft 488 kts 349°
2026-05-01 11:10 -10.95656 147.32299 33948 ft 488 kts 350°
2026-05-01 11:10 -10.88962 147.31351 33941 ft 489 kts 349°
2026-05-01 11:11 -10.82218 147.30398 33940 ft 489 kts 350°
2026-05-01 11:11 -10.75491 147.29442 33943 ft 488 kts 350°
2026-05-01 11:12 -10.68755 147.28489 33938 ft 487 kts 349°
2026-05-01 11:12 -10.62059 147.27540 33937 ft 485 kts 350°
2026-05-01 11:13 -10.55370 147.26596 33942 ft 485 kts 350°
2026-05-01 11:13 -10.48713 147.25656 33937 ft 486 kts 351°
2026-05-01 11:14 -10.42000 147.24710 33939 ft 487 kts 350°
2026-05-01 11:14 -10.35283 147.23762 33937 ft 487 kts 349°
2026-05-01 11:15 -10.28550 147.22809 33934 ft 488 kts 349°
2026-05-01 11:15 -10.21862 147.21865 33933 ft 487 kts 349°
2026-05-01 11:16 -10.15150 147.20920 33933 ft 486 kts 350°
2026-05-01 11:16 -10.08432 147.19973 33923 ft 484 kts 351°
2026-05-01 11:17 -10.01810 147.19039 33920 ft 483 kts 351°
2026-05-01 11:17 -9.95155 147.18100 33918 ft 483 kts 351°
2026-05-01 11:18 -9.88486 147.17163 33921 ft 484 kts 350°
2026-05-01 11:18 -9.81838 147.16228 33914 ft 486 kts 352°
2026-05-01 11:19 -9.75123 147.15283 33928 ft 488 kts 352°
2026-05-01 11:19 -9.68396 147.14338 33926 ft 489 kts 352°
2026-05-01 11:20 -9.61646 147.13389 33923 ft 490 kts 352°
2026-05-01 11:20 -9.54887 147.12440 33923 ft 490 kts 352°
2026-05-01 11:21 -9.48130 147.11490 33926 ft 489 kts 353°
2026-05-01 11:21 -9.41405 147.10546 33919 ft 487 kts 353°
2026-05-01 11:22 -9.34727 147.09610 33927 ft 486 kts 353°
2026-05-01 11:22 -9.28015 147.08668 33924 ft 486 kts 353°
2026-05-01 11:23 -9.21317 147.07729 33927 ft 486 kts 353°
2026-05-01 11:23 -9.14618 147.06790 33938 ft 486 kts 353°
2026-05-01 11:24 -9.07902 147.05850 33938 ft 487 kts 353°
2026-05-01 11:25 -8.97846 147.04441 33940 ft 488 kts 353°
2026-05-01 11:25 -8.87760 147.03029 33956 ft 488 kts 353°
2026-05-01 11:26 -8.77672 147.01618 33959 ft 487 kts 353°
2026-05-01 11:27 -8.70982 147.00683 33973 ft 487 kts 353°
2026-05-01 11:27 -8.64266 146.99744 33999 ft 487 kts 353°
2026-05-01 11:28 -8.57558 146.98807 33999 ft 487 kts 353°
2026-05-01 11:28 -8.50835 146.97868 34022 ft 488 kts 353°
2026-05-01 11:29 -8.40751 146.96461 34023 ft 490 kts 353°
2026-05-01 11:30 -8.30604 146.95045 34050 ft 491 kts 353°
2026-05-01 11:30 -8.23821 146.94099 34038 ft 492 kts 353°
2026-05-01 11:31 -8.17028 146.93152 34037 ft 493 kts 353°
2026-05-01 11:31 -8.10207 146.92201 34051 ft 494 kts 353°
2026-05-01 11:32 -8.03441 146.91258 34050 ft 494 kts 353°
2026-05-01 11:32 -7.96609 146.90307 34060 ft 495 kts 353°
2026-05-01 11:33 -7.89778 146.89356 34051 ft 496 kts 353°
2026-05-01 11:33 -7.82936 146.88404 34072 ft 497 kts 353°
2026-05-01 11:34 -7.76064 146.87448 34064 ft 498 kts 353°
2026-05-01 11:34 -7.69225 146.86496 34062 ft 499 kts 353°
2026-05-01 11:35 -7.62333 146.85538 34052 ft 499 kts 353°
2026-05-01 11:35 -7.55458 146.84582 34054 ft 498 kts 353°
2026-05-01 11:36 -7.48608 146.83630 34057 ft 495 kts 353°
2026-05-01 11:36 -7.41839 146.82690 34050 ft 493 kts 353°
2026-05-01 11:37 -7.35060 146.81749 34046 ft 491 kts 353°
2026-05-01 11:37 -7.28287 146.80809 34048 ft 490 kts 353°
2026-05-01 11:38 -7.21534 146.79871 34033 ft 490 kts 353°
2026-05-01 11:38 -7.14772 146.78933 34034 ft 490 kts 353°
2026-05-01 11:39 -7.08006 146.77995 34011 ft 491 kts 353°
2026-05-01 11:39 -7.01229 146.77055 34014 ft 492 kts 353°
2026-05-01 11:40 -6.94446 146.76115 34003 ft 492 kts 353°
2026-05-01 11:40 -6.87650 146.75173 33993 ft 493 kts 353°
2026-05-01 11:41 -6.80901 146.74238 33990 ft 493 kts 353°
2026-05-01 11:41 -6.74111 146.73297 33985 ft 493 kts 353°
2026-05-01 11:42 -6.67275 146.72350 33991 ft 492 kts 353°
2026-05-01 11:42 -6.60524 146.71416 34002 ft 493 kts 353°
2026-05-01 11:43 -6.53727 146.70522 34007 ft 493 kts 355°
2026-05-01 11:43 -6.46883 146.69927 34032 ft 493 kts 356°
2026-05-01 11:44 -6.36615 146.69131 34026 ft 493 kts 356°
2026-05-01 11:44 -6.29814 146.68558 34047 ft 494 kts 356°
2026-05-01 11:45 -6.22962 146.67961 34047 ft 494 kts 356°
2026-05-01 11:45 -6.16097 146.67361 34046 ft 495 kts 356°
2026-05-01 11:46 -6.09238 146.66762 34046 ft 495 kts 356°
2026-05-01 11:46 -6.02365 146.66165 34050 ft 495 kts 356°
2026-05-01 11:47 -5.95507 146.65569 34020 ft 495 kts 356°
2026-05-01 11:47 -5.88680 146.64976 34025 ft 494 kts 356°
2026-05-01 11:48 -5.81813 146.64380 33993 ft 494 kts 356°
2026-05-01 11:48 -5.74958 146.63785 33981 ft 495 kts 356°
2026-05-01 11:49 -5.68084 146.63188 33948 ft 494 kts 356°
2026-05-01 11:49 -5.61282 146.62598 33962 ft 494 kts 356°
2026-05-01 11:50 -5.54425 146.62003 33926 ft 494 kts 356°
2026-05-01 11:50 -5.47582 146.61409 33927 ft 494 kts 356°
2026-05-01 11:51 -5.40715 146.60813 33902 ft 495 kts 356°
2026-05-01 11:51 -5.33863 146.60219 33899 ft 494 kts 356°
2026-05-01 11:52 -5.27015 146.59625 33898 ft 494 kts 356°
2026-05-01 11:52 -5.20167 146.59032 33898 ft 494 kts 356°
2026-05-01 11:53 -5.13360 146.58442 33898 ft 493 kts 356°
2026-05-01 11:53 -5.06523 146.57850 33897 ft 493 kts 356°
2026-05-01 11:54 -4.99676 146.57257 33899 ft 494 kts 356°
2026-05-01 11:54 -4.92817 146.56663 33898 ft 494 kts 356°
2026-05-01 11:55 -4.85968 146.56070 33898 ft 494 kts 356°
2026-05-01 11:55 -4.79144 146.55479 33896 ft 494 kts 356°
2026-05-01 11:56 -4.72250 146.54882 33896 ft 494 kts 356°
2026-05-01 11:56 -4.65436 146.54293 34104 ft 495 kts 356°
2026-05-01 11:57 -4.62015 146.53997 34497 ft 491 kts 356°
2026-05-01 11:57 -4.59719 146.53798 34740 ft 489 kts 356°
2026-05-01 11:57 -4.55234 146.53410 35103 ft 488 kts 356°
2026-05-01 11:57 -4.51850 146.53117 35364 ft 487 kts 356°
2026-05-01 11:58 -4.48476 146.52825 35607 ft 486 kts 356°
2026-05-01 11:58 -4.31501 146.51357 36169 ft 491 kts 356°
2026-05-01 11:58 -3.85485 146.47381 35877 ft 496 kts 356°
2026-05-01 11:59 -3.49757 146.44297 35769 ft 477 kts 356°
2026-05-01 11:59 -3.23249 146.42015 35930 ft 482 kts 356°
2026-05-01 11:59 -3.05005 146.40434 36029 ft 491 kts 357°
2026-05-01 12:00 -2.50550 146.35742 35838 ft 489 kts 357°
2026-05-01 12:00 -2.23749 146.33441 35790 ft 477 kts 357°
2026-05-01 12:00 -1.70083 146.28825 36026 ft 496 kts 357°
2026-05-01 12:01 -1.42432 146.26444 35937 ft 499 kts 357°
2026-05-01 12:01 -1.14983 146.24081 35822 ft 489 kts 357°
2026-05-01 12:01 -0.88209 146.21785 35803 ft 479 kts 357°
2026-05-01 12:01 -0.61476 146.19489 35935 ft 486 kts 357°
2026-05-01 12:02 -0.34162 146.17137 36019 ft 498 kts 357°
2026-05-01 12:02 0.20673 146.09661 35800 ft 491 kts 347°
2026-05-01 12:03 0.73331 145.97501 35962 ft 489 kts 349°
2026-05-01 12:03 0.99786 145.91468 36011 ft 501 kts 349°
2026-05-01 12:03 1.26997 145.85267 35873 ft 498 kts 349°
2026-05-01 12:03 1.66290 145.76309 35692 ft 485 kts 349°
2026-05-01 12:04 2.18568 145.64387 35852 ft 482 kts 349°
2026-05-01 12:04 2.71500 145.52305 36087 ft 494 kts 349°
2026-05-01 12:04 3.25924 145.39883 36063 ft 507 kts 349°
2026-05-01 12:04 3.80987 145.27290 35845 ft 505 kts 348°
2026-05-01 12:05 4.35004 145.14907 35752 ft 494 kts 348°
2026-05-01 12:05 5.41165 145.00393 36023 ft 483 kts
2026-05-01 12:05 5.96219 145.00049 36187 ft 500 kts
2026-05-01 12:06 6.50711 144.86909 35832 ft 501 kts 348°
2026-05-01 12:06 7.04284 144.74115 35769 ft 492 kts 346°
2026-05-01 12:06 8.09548 144.47885 35847 ft 492 kts 347°
2026-05-01 12:07 9.16590 144.21017 35946 ft 494 kts 347°
2026-05-01 12:07 10.23191 143.95194 35922 ft 493 kts 350°
2026-05-01 12:08 11.31354 143.74096 35881 ft 495 kts 347°
2026-05-01 12:08 12.38387 143.52812 35909 ft 493 kts 347°
2026-05-01 12:09 13.46304 143.31173 36031 ft 491 kts 347°
2026-05-01 12:09 13.85667 143.23200 36033 ft 490 kts 347°
2026-05-01 12:11 14.51289 143.09921 35955 ft 485 kts 348°
2026-05-01 12:11 15.57069 142.88868 36048 ft 482 kts 348°
2026-05-01 12:12 16.62373 142.68138 36029 ft 480 kts 348°
2026-05-01 12:12 17.66786 142.47352 36016 ft 478 kts 348°
2026-05-01 12:13 18.71823 142.26207 36048 ft 477 kts 347°
2026-05-01 12:13 19.75682 142.05015 36060 ft 478 kts 346°
2026-05-01 12:14 20.80615 141.84361 36085 ft 481 kts 346°
2026-05-01 12:14 21.86813 141.63497 36097 ft 485 kts 346°
2026-05-01 12:15 22.92932 141.42318 36101 ft 488 kts 345°
2026-05-01 12:15 24.00530 141.20505 36105 ft 489 kts 345°
2026-05-01 12:16 25.07272 140.98674 36246 ft 496 kts 347°
2026-05-01 12:16 25.62467 140.92262 36078 ft 493 kts 348°
2026-05-01 12:16 26.16997 140.85248 35982 ft 490 kts 348°
2026-05-01 12:17 27.26712 140.71108 36154 ft 506 kts 347°
2026-05-01 12:17 28.40055 140.56207 35977 ft 513 kts 346°
2026-05-01 12:18 29.53174 140.41047 35939 ft 510 kts 344°
2026-05-01 12:18 30.08094 140.33002 35442 ft 475 kts 335°
2026-05-01 12:18 30.57464 140.13910 36593 ft 506 kts 332°
2026-05-01 12:19 31.46213 139.94601 28384 ft 496 kts 347°
2026-05-01 12:19 31.50936 139.94832 28674 ft 493 kts 354°
2026-05-01 12:19 31.54371 139.95768 28955 ft 516 kts
2026-05-01 12:20 31.57806 139.97055 29243 ft 517 kts
2026-05-01 12:20 31.61260 139.98121 29491 ft 508 kts 358°
2026-05-01 12:20 31.79362 139.99407 30298 ft 469 kts 342°
2026-05-01 12:20 32.05953 139.98906 32041 ft 490 kts 345°
2026-05-01 12:21 32.33775 139.99049 32983 ft 512 kts 345°
2026-05-01 12:21 32.63360 139.99107 33207 ft 547 kts 347°
2026-05-01 12:21 32.94234 139.99220 32920 ft 557 kts 348°
2026-05-01 12:21 33.24651 139.99268 32602 ft 532 kts 349°
2026-05-01 12:22 33.53339 139.99349 32539 ft 518 kts 350°
2026-05-01 12:22 33.82872 139.99405 32803 ft 532 kts 351°
2026-05-01 12:22 34.11911 139.99497 30542 ft 518 kts 351°
2026-05-01 12:22 34.38262 140.15801 25903 ft 569 kts 58°
2026-05-01 12:23 34.42823 140.33187 23837 ft 524 kts 100°
2026-05-01 12:23 34.42257 140.37469 23310 ft 510 kts 111°
2026-05-01 12:23 34.41437 140.41636 22785 ft 508 kts 109°
2026-05-01 12:23 34.41078 140.45923 22236 ft 517 kts 92°
2026-05-01 12:24 34.41755 140.50212 21801 ft 522 kts 73°
2026-05-01 12:24 34.43159 140.54242 21340 ft 519 kts 65°
2026-05-01 12:24 34.44734 140.58171 20835 ft 516 kts 66°
2026-05-01 12:24 34.46326 140.62037 20265 ft 510 kts 59°
2026-05-01 12:25 34.48535 140.65372 19588 ft 507 kts 39°
2026-05-01 12:25 34.54521 140.69415 18576 ft 484 kts
2026-05-01 12:25 34.57717 140.70183 18140 ft 463 kts 353°
2026-05-01 12:26 34.60886 140.70074 17560 ft 439 kts 339°
2026-05-01 12:26 34.65824 140.66951 16552 ft 383 kts 305°
2026-05-01 12:26 34.67514 140.64546 16147 ft 364 kts 294°
2026-05-01 12:27 34.68750 140.61971 16098 ft 342 kts 287°
2026-05-01 12:27 34.70038 140.56841 15883 ft 295 kts 264°
2026-05-01 12:28 34.69966 140.52114 15680 ft 268 kts 263°
2026-05-01 12:28 34.69953 140.49886 15499 ft 259 kts 263°
2026-05-01 12:28 34.69930 140.45599 14816 ft 251 kts 264°
2026-05-01 12:29 34.69919 140.43478 14369 ft 251 kts 264°
2026-05-01 12:29 34.69908 140.41347 13880 ft 253 kts 265°
2026-05-01 12:29 34.70688 140.37126 12682 ft 275 kts 294°
2026-05-01 12:30 34.73506 140.33860 12073 ft 285 kts 319°
2026-05-01 12:30 34.75184 140.32723 11962 ft 275 kts 320°
2026-05-01 12:30 34.76857 140.31613 11555 ft 274 kts 320°
2026-05-01 12:31 34.78544 140.30472 11128 ft 273 kts 320°
2026-05-01 12:31 34.80173 140.29350 10748 ft 271 kts 319°
2026-05-01 12:31 34.81803 140.28211 10358 ft 269 kts 319°
2026-05-01 12:31 34.83422 140.27072 9971 ft 268 kts 319°
2026-05-01 12:32 34.85035 140.25934 9612 ft 267 kts 319°
2026-05-01 12:32 34.88624 140.24628 8875 ft 281 kts 349°
2026-05-01 12:32 34.89922 140.24596 8738 ft 282 kts 348°
2026-05-01 12:33 34.92543 140.24481 8420 ft 279 kts 347°
2026-05-01 12:33 34.94450 140.24387 8214 ft 275 kts 346°
2026-05-01 12:33 34.96324 140.24293 8015 ft 267 kts 346°
2026-05-01 12:33 34.98170 140.24194 7784 ft 263 kts 346°
2026-05-01 12:34 35.00004 140.24092 7611 ft 265 kts 346°
2026-05-01 12:34 35.01861 140.23986 7421 ft 268 kts 346°
2026-05-01 12:34 35.03729 140.23883 7218 ft 269 kts 346°
2026-05-01 12:34 35.05602 140.23783 7030 ft 267 kts 346°
2026-05-01 12:35 35.07446 140.23686 6935 ft 263 kts 346°
2026-05-01 12:35 35.09267 140.23589 6802 ft 260 kts 345°
2026-05-01 12:35 35.11062 140.23491 6677 ft 258 kts 345°
2026-05-01 12:35 35.12857 140.23393 6562 ft 258 kts 345°
2026-05-01 12:36 35.14640 140.23300 6464 ft 256 kts 345°
2026-05-01 12:36 35.16392 140.23205 6365 ft 255 kts 345°
2026-05-01 12:36 35.18174 140.23095 6264 ft 257 kts 345°
2026-05-01 12:36 35.19965 140.22997 6098 ft 258 kts 345°
2026-05-01 12:37 35.21750 140.22904 6017 ft 256 kts 344°
2026-05-01 12:37 35.23538 140.22794 5901 ft 258 kts 345°
2026-05-01 12:37 35.25335 140.22697 5770 ft 259 kts 345°
2026-05-01 12:37 35.27130 140.22600 5660 ft 257 kts 347°
2026-05-01 12:38 35.28888 140.22512 5547 ft 249 kts 347°
2026-05-01 12:38 35.30605 140.22422 5403 ft 247 kts 347°
2026-05-01 12:38 35.32323 140.22326 5342 ft 248 kts 346°
2026-05-01 12:38 35.34065 140.22218 5219 ft 253 kts 347°
2026-05-01 12:39 35.35826 140.22118 5101 ft 251 kts 347°
2026-05-01 12:39 35.37558 140.22024 4996 ft 247 kts 346°
2026-05-01 12:39 35.39251 140.21874 4940 ft 242 kts 344°
2026-05-01 12:39 35.40935 140.21692 4882 ft 244 kts 343°
2026-05-01 12:40 35.42628 140.21511 4830 ft 244 kts 344°
2026-05-01 12:40 35.44331 140.21333 4775 ft 245 kts 344°
2026-05-01 12:40 35.46004 140.21160 4726 ft 244 kts 346°
2026-05-01 12:40 35.47693 140.20987 4659 ft 237 kts 346°
2026-05-01 12:41 35.49258 140.20672 4573 ft 223 kts 328°
2026-05-01 12:41 35.50404 140.19525 4565 ft 211 kts 297°
2026-05-01 12:41 35.50914 140.17868 4535 ft 208 kts 278°
2026-05-01 12:41 35.51143 140.16123 4516 ft 206 kts 277°
2026-05-01 12:42 35.51524 140.14454 4553 ft 203 kts 289°
2026-05-01 12:42 35.52138 140.12904 4554 ft 201 kts 291°
2026-05-01 12:42 35.52788 140.11369 4514 ft 206 kts 292°
2026-05-01 12:42 35.53448 140.09789 4695 ft 206 kts 292°
2026-05-01 12:43 35.54100 140.08197 4933 ft 208 kts 292°
2026-05-01 12:43 35.54749 140.06609 5209 ft 209 kts 292°
2026-05-01 12:43 35.55410 140.05004 5288 ft 212 kts 292°
2026-05-01 12:43 35.56193 140.03450 5284 ft 219 kts 311°
2026-05-01 12:44 35.57572 140.02547 5311 ft 238 kts 340°
2026-05-01 12:44 35.59219 140.02332 5095 ft 241 kts 351°
2026-05-01 12:44 35.62556 140.02233 4993 ft 242 kts 352°
2026-05-01 12:45 35.65950 140.02155 4978 ft 244 kts 352°
2026-05-01 12:45 35.67651 140.02117 4973 ft 244 kts 352°
2026-05-01 12:45 35.69348 140.02078 4972 ft 243 kts 352°
2026-05-01 12:46 35.71024 140.02043 4981 ft 240 kts 352°
2026-05-01 12:46 35.72681 140.02015 5004 ft 235 kts 352°
2026-05-01 12:46 35.74309 140.01995 4962 ft 232 kts 352°
2026-05-01 12:46 35.75892 140.01977 4800 ft 228 kts 352°
2026-05-01 12:47 35.77460 140.01958 4686 ft 217 kts 352°
2026-05-01 12:47 35.78931 140.01896 4400 ft 205 kts 343°
2026-05-01 12:47 35.80206 140.01284 3853 ft 198 kts 322°
2026-05-01 12:47 35.81230 140.00169 3245 ft 195 kts 305°
2026-05-01 12:48 35.81894 139.98817 2991 ft 162 kts 279°
2026-05-01 12:48 35.81759 139.97543 3288 ft 155 kts 253°
2026-05-01 12:48 35.81321 139.96282 3400 ft 165 kts 240°
2026-05-01 12:48 35.80396 139.95439 3424 ft 176 kts 210°
2026-05-01 12:49 35.79184 139.95013 3414 ft 185 kts 190°
2026-05-01 12:49 35.77890 139.95049 3435 ft 186 kts 188°
2026-05-01 12:49 35.76737 139.94638 3396 ft 169 kts 226°
2026-05-01 12:49 35.76110 139.93493 3405 ft 159 kts 237°
2026-05-01 12:50 35.75152 139.92669 3265 ft 176 kts 215°
2026-05-01 12:50 35.74091 139.91989 3308 ft 171 kts 215°
2026-05-01 12:50 35.73032 139.91313 3248 ft 173 kts 215°
2026-05-01 12:50 35.71969 139.90634 3124 ft 172 kts 214°
2026-05-01 12:51 35.70948 139.89906 3029 ft 161 kts 226°
2026-05-01 12:51 35.70185 139.88957 3120 ft 161 kts 224°
2026-05-01 12:51 35.68192 139.87391 3424 ft 172 kts 220°
2026-05-01 12:52 35.67159 139.86585 3321 ft 181 kts 218°
2026-05-01 12:52 35.64921 139.84752 2744 ft 206 kts 221°
2026-05-01 12:52 35.63713 139.83613 2099 ft 238 kts 221°
2026-05-01 12:53 35.61504 139.81826 1531 ft 265 kts 216°
2026-05-01 12:53 35.60332 139.80850 1736 ft 252 kts 218°
2026-05-01 12:54 35.57777 139.78663 449 ft 252 kts 218°
2026-05-01 12:54 35.56403 139.77420 38 ft 235 kts 219°
2026-05-01 12:55 35.54872 139.76066 41 ft 172 kts 211°